Upstream stations:
Downstream station:
SHEF ID: AMAT2 Canadian Rv nr Amarillo, TX
STATION TYPE:
Regulating: Stage = 13.00, Flow = 87096
STAGE RIV-FLOW WTR-TEMP CONDUCT BAT-LOAD
ft cfs F umho/cm volt
Ccp-Rev Ccp-Rev Ccp-Rev Ccp-Rev Ccp-Rev
(US/Central)
05/25 00:00 1.18 21 58.28 7 12.49
05/25 01:00 1.18 21 57.97 5 12.49
05/25 02:00 1.17 20 57.94 5 12.49
05/25 03:00 1.16 19 57.85 5 12.49
05/25 04:00 1.13 17 57.74 5 12.49
05/25 05:00 1.13 17 57.58 5 12.49
05/25 06:00 1.11 16 57.36 5 12.49
05/25 07:00 1.12 17 57.16 5 12.49
05/25 08:00 1.09 15 56.97 5 12.65
05/25 09:00 1.06 13 56.84 5 12.97
05/25 10:00 1.04 12 56.95 5 13.05
05/25 11:00 1.02 11 57.43 5 13.05
05/25 12:00 1.01 10 ---- ---- 12.97
05/25 13:00 1.00 10 63.12 2 13.05
05/25 14:00 0.98 9 65.19 2 13.13
05/25 15:00 0.96 8 66.81 2 13.13
05/25 16:00 0.94 7 69.84 2 13.05
05/25 17:00 0.90 6 70.97 2 12.97
05/25 18:00 0.92 6 70.97 2 12.89
05/25 19:00 0.91 6 69.98 2 12.81
05/25 20:00 0.90 6 67.46 2 12.81
05/25 21:00 0.91 6 64.98 2 12.73
05/25 22:00 0.91 6 63.09 2 12.73
05/25 23:00 0.90 6 61.59 2 12.73